Location: Platte
(43.3870°N, 98.8440°W)
Time: 00:19:16
(UTC-05:00)

Helios 1A - Pass Details

Date: 21 May 2018
Orbit: 585 x 604 km, 98.2° (Epoch: 17 August)

Event Time Altitude Azimuth Distance (km) Brightness Sun altitude
Exits shadow 22:40:38 27° 141° (SE) 1,140 3.8 -15.1°
Maximum altitude 22:42:42 57° 73° (ENE) 692 3.1 -15.3°
Drops below altitude 10° 22:46:46 10° 355° (N) 1,917 6.4 -15.8°
Sets 22:48:57 0° 351° (N) 2,822 7.5 -16.1°
